User: anonymous   Login
Location: Unspecified
(0.0000°N, 0.0000°E)
Time: 13:48:03
(UTC+00:00)
Language:

Optus B1 - Orbit

View from above orbital plane
View from above orbital plane
View from above satellite
View from above satellite

Ground track
Ground track

The orbit data is extracted from the following two-line orbital elements,

1 22087U 92054A   16344.93721103 -.00000009 +00000-0 +00000-0 0  9993
2 22087 008.4124 047.4250 0003139 071.2836 324.8922 00.99205424100225
Epoch (UTC): 09 December 2016 22:29:35
Eccentricity: 0.0003139
inclination: 8.4124°
perigee height: 36074 km
apogee height: 36101 km
right ascension of ascending node: 47.4250°
argument of perigee: 71.2836°
revolutions per day: 0.99205424
mean anomaly at epoch: 324.8922°
orbit number at epoch: 10022

The dashed part of the orbit path shows where the satellite is in the earth's shadow,  

DLR